RJA185 OJAI-LLBG

Flight info

Callsign RJA185
Flight time 0h 34m
Altitude 14000
Route RALNA N134 SALAM
Aircraft A333/H-SDE3GHIJ2J3J5M1RVWXY/LB2D1

Departure

Time 2026-05-09 14:59
Airport Queen Alia International Airport (OJAI)

Arrival

Time 2026-05-09 15:33
Airport Ben Gurion International Airport (LLBG)
Time Latitude Longitude Altitude Speed Heading
2026-05-09 14:48 31.72445 35.98961 2377 ft 0 kts 172°
2026-05-09 14:50 31.72457 35.98959 2377 ft 4 kts 172°
2026-05-09 14:50 31.72483 35.98955 2377 ft 4 kts 171°
2026-05-09 14:51 31.72509 35.98948 2377 ft 4 kts 148°
2026-05-09 14:51 31.72524 35.98927 2377 ft 4 kts 97°
2026-05-09 14:51 31.72524 35.98904 2377 ft 0 kts 82°
2026-05-09 14:54 31.72526 35.98929 2377 ft 7 kts 84°
2026-05-09 14:55 31.72527 35.99014 2377 ft 14 kts 92°
2026-05-09 14:55 31.72534 35.99150 2378 ft 20 kts 85°
2026-05-09 14:55 31.72559 35.99331 2378 ft 25 kts 80°
2026-05-09 14:55 31.72635 35.99490 2381 ft 22 kts
2026-05-09 14:56 31.72723 35.99480 2379 ft 14 kts
2026-05-09 14:56 31.72763 35.99523 2379 ft 9 kts 59°
2026-05-09 14:56 31.72786 35.99631 2380 ft 19 kts 82°
2026-05-09 14:56 31.72814 35.99817 2380 ft 27 kts 80°
2026-05-09 14:57 31.72848 36.00068 2381 ft 35 kts 80°
2026-05-09 14:57 31.72892 36.00355 2382 ft 36 kts 80°
2026-05-09 14:57 31.72931 36.00625 2383 ft 31 kts 81°
2026-05-09 14:57 31.73052 36.00770 2383 ft 18 kts 354°
2026-05-09 14:58 31.73140 36.00753 2383 ft 19 kts 346°
2026-05-09 14:58 31.73207 36.00642 2382 ft 18 kts 271°
2026-05-09 14:58 31.73181 36.00430 2382 ft 49 kts 260°
2026-05-09 14:58 31.73074 35.99700 2380 ft 130 kts 260°
2026-05-09 14:59 31.72878 35.98419 2764 ft 177 kts 261°
2026-05-09 14:59 31.72651 35.96790 3224 ft 230 kts 261°
2026-05-09 14:59 31.72381 35.94893 4428 ft 240 kts 261°
2026-05-09 14:59 31.72098 35.92931 5181 ft 252 kts 260°
2026-05-09 15:00 31.71795 35.90844 5743 ft 265 kts 259°
2026-05-09 15:00 31.71475 35.88667 6420 ft 275 kts 258°
2026-05-09 15:00 31.71147 35.86437 7194 ft 280 kts 258°
2026-05-09 15:00 31.70816 35.84172 8051 ft 282 kts 258°
2026-05-09 15:01 31.70149 35.79566 9650 ft 289 kts 258°
2026-05-09 15:01 31.69811 35.77225 9945 ft 290 kts 259°
2026-05-09 15:01 31.69659 35.74881 9991 ft 293 kts 272°
2026-05-09 15:02 31.70193 35.72575 9990 ft 297 kts 296°
2026-05-09 15:02 31.71505 35.70694 9992 ft 301 kts 319°
2026-05-09 15:02 31.73221 35.69269 9994 ft 303 kts 325°
2026-05-09 15:02 31.75011 35.67947 10000 ft 304 kts 326°
2026-05-09 15:03 31.76803 35.66631 9997 ft 304 kts 326°
2026-05-09 15:03 31.78597 35.65302 9998 ft 304 kts 326°
2026-05-09 15:03 31.80388 35.63965 9999 ft 304 kts 326°
2026-05-09 15:03 31.82170 35.62627 9999 ft 304 kts 326°
2026-05-09 15:04 31.83926 35.61304 9999 ft 304 kts 325°
2026-05-09 15:04 31.85706 35.59961 9999 ft 304 kts 325°
2026-05-09 15:06 31.94616 35.47448 9999 ft 296 kts 285°
2026-05-09 15:06 31.95254 35.45142 10002 ft 297 kts 286°
2026-05-09 15:06 31.95905 35.42836 9993 ft 297 kts 286°
2026-05-09 15:06 31.96555 35.40560 9989 ft 297 kts 286°
2026-05-09 15:07 31.97225 35.38226 9991 ft 297 kts 287°
2026-05-09 15:07 31.97877 35.35958 9990 ft 295 kts 287°
2026-05-09 15:07 31.98538 35.33659 9989 ft 296 kts 286°
2026-05-09 15:07 31.99196 35.31358 9983 ft 297 kts 287°
2026-05-09 15:08 31.99856 35.29051 9980 ft 297 kts 287°
2026-05-09 15:08 32.01529 35.24619 9962 ft 301 kts 306°
2026-05-09 15:08 32.02923 35.22744 9727 ft 303 kts 312°
2026-05-09 15:09 32.04381 35.20977 9478 ft 297 kts 313°
2026-05-09 15:10 32.13830 35.08554 8480 ft 292 kts 309°
2026-05-09 15:11 32.15144 35.06723 8365 ft 291 kts 309°
2026-05-09 15:11 32.16456 35.04898 8252 ft 291 kts 309°
2026-05-09 15:11 32.17762 35.03080 8143 ft 290 kts 309°
2026-05-09 15:11 32.19065 35.01266 8034 ft 289 kts 309°
2026-05-09 15:12 32.20264 34.99367 7929 ft 287 kts 298°
2026-05-09 15:12 32.21080 34.97223 7855 ft 286 kts 290°
2026-05-09 15:12 32.21769 34.95017 7781 ft 286 kts 289°
2026-05-09 15:12 32.22436 34.92809 7703 ft 285 kts 289°
2026-05-09 15:13 32.23095 34.90633 7624 ft 285 kts 289°
2026-05-09 15:13 32.23766 34.88430 7546 ft 284 kts 289°
2026-05-09 15:13 32.24430 34.86257 7448 ft 275 kts 289°
2026-05-09 15:13 32.24936 34.84134 7343 ft 263 kts 276°
2026-05-09 15:14 32.24770 34.82044 7277 ft 252 kts 250°
2026-05-09 15:14 32.23857 34.80349 7149 ft 242 kts 223°
2026-05-09 15:14 32.22455 34.79321 7030 ft 235 kts 203°
2026-05-09 15:14 32.20944 34.78665 6918 ft 229 kts 199°
2026-05-09 15:15 32.19433 34.78077 6887 ft 229 kts 199°
2026-05-09 15:15 32.17894 34.77628 6852 ft 229 kts 186°
2026-05-09 15:15 32.16319 34.77818 6821 ft 230 kts 161°
2026-05-09 15:15 32.14978 34.78821 6787 ft 231 kts 133°
2026-05-09 15:16 32.14107 34.80380 6804 ft 221 kts 117°
2026-05-09 15:16 32.13486 34.81942 6738 ft 204 kts 115°
2026-05-09 15:16 32.12936 34.83399 6635 ft 185 kts 114°
2026-05-09 15:16 32.12431 34.84731 6507 ft 170 kts 115°
2026-05-09 15:17 32.11961 34.85954 6345 ft 158 kts 115°
2026-05-09 15:17 32.11511 34.87110 6120 ft 153 kts 115°
2026-05-09 15:17 32.11070 34.88233 5964 ft 150 kts 115°
2026-05-09 15:17 32.10631 34.89351 5988 ft 151 kts 115°
2026-05-09 15:18 32.10186 34.90478 5990 ft 151 kts 115°
2026-05-09 15:18 32.09742 34.91602 5991 ft 151 kts 115°
2026-05-09 15:18 32.09296 34.92729 5990 ft 151 kts 115°
2026-05-09 15:18 32.08849 34.93855 5991 ft 152 kts 115°
2026-05-09 15:19 32.08401 34.94982 5991 ft 152 kts 115°
2026-05-09 15:19 32.07955 34.96111 5988 ft 152 kts 115°
2026-05-09 15:19 32.07514 34.97224 5991 ft 151 kts 115°
2026-05-09 15:19 32.07068 34.98345 5991 ft 151 kts 115°
2026-05-09 15:20 32.06622 34.99466 5992 ft 152 kts 115°
2026-05-09 15:20 32.05730 35.01722 5989 ft 151 kts 115°
2026-05-09 15:20 32.05284 35.02841 5990 ft 151 kts 116°
2026-05-09 15:21 32.04839 35.03963 5949 ft 152 kts 116°
2026-05-09 15:21 32.04392 35.05088 5837 ft 150 kts 116°
2026-05-09 15:21 32.03950 35.06203 5730 ft 150 kts 115°
2026-05-09 15:21 32.03511 35.07317 5636 ft 150 kts 115°
2026-05-09 15:22 32.03070 35.08427 5529 ft 149 kts 115°
2026-05-09 15:22 32.02636 35.09527 5406 ft 150 kts 115°
2026-05-09 15:22 32.02195 35.10642 5322 ft 150 kts 115°
2026-05-09 15:22 32.01756 35.11754 5218 ft 150 kts 114°
2026-05-09 15:23 32.01319 35.12861 5111 ft 149 kts 115°
2026-05-09 15:23 32.00878 35.13963 5007 ft 148 kts 116°
2026-05-09 15:23 32.00336 35.14983 4895 ft 147 kts 129°
2026-05-09 15:23 31.99582 35.15794 4822 ft 147 kts 146°
2026-05-09 15:24 31.98660 35.16299 4709 ft 147 kts 164°
2026-05-09 15:24 31.97649 35.16468 4622 ft 147 kts 178°
2026-05-09 15:24 31.96638 35.16463 4519 ft 146 kts 181°
2026-05-09 15:24 31.95621 35.16434 4420 ft 147 kts 181°
2026-05-09 15:25 31.94609 35.16310 4314 ft 146 kts 192°
2026-05-09 15:25 31.93627 35.16031 4203 ft 145 kts 196°
2026-05-09 15:25 31.92650 35.15719 4111 ft 145 kts 195°
2026-05-09 15:26 31.90735 35.14984 3971 ft 145 kts 211°
2026-05-09 15:26 31.90004 35.14184 3892 ft 144 kts 237°
2026-05-09 15:26 31.89657 35.13099 3836 ft 142 kts 263°
2026-05-09 15:26 31.89626 35.11938 3779 ft 142 kts 271°
2026-05-09 15:27 31.89651 35.10778 3712 ft 141 kts 273°
2026-05-09 15:27 31.89760 35.09632 3583 ft 142 kts 283°
2026-05-09 15:27 31.90076 35.08540 3321 ft 140 kts 296°
2026-05-09 15:27 31.90534 35.07540 3207 ft 138 kts 302°
2026-05-09 15:28 31.91028 35.06591 3205 ft 138 kts 304°
2026-05-09 15:28 31.91540 35.05620 3204 ft 138 kts 304°
2026-05-09 15:28 31.92039 35.04666 3201 ft 139 kts 303°
2026-05-09 15:28 31.92544 35.03692 3119 ft 139 kts 303°
2026-05-09 15:29 31.93050 35.02717 2917 ft 139 kts 304°
2026-05-09 15:29 31.93552 35.01755 2714 ft 137 kts 304°
2026-05-09 15:29 31.94047 35.00806 2510 ft 136 kts 304°
2026-05-09 15:29 31.94537 34.99868 2311 ft 133 kts 304°
2026-05-09 15:30 31.95020 34.98943 2127 ft 132 kts 304°
2026-05-09 15:30 31.95503 34.98020 1938 ft 132 kts 304°
2026-05-09 15:30 31.95980 34.97104 1749 ft 130 kts 304°
2026-05-09 15:30 31.96447 34.96208 1568 ft 129 kts 303°
2026-05-09 15:31 31.96913 34.95308 1380 ft 128 kts 303°
2026-05-09 15:31 31.97380 34.94412 1203 ft 127 kts 304°
2026-05-09 15:31 31.97842 34.93530 1024 ft 127 kts 304°
2026-05-09 15:31 31.98310 34.92635 835 ft 128 kts 304°
2026-05-09 15:32 31.98778 34.91736 654 ft 128 kts 303°
2026-05-09 15:32 31.99239 34.90843 418 ft 127 kts 303°
2026-05-09 15:32 31.99699 34.89955 257 ft 127 kts 302°
2026-05-09 15:32 32.00160 34.89078 139 ft 124 kts 302°
2026-05-09 15:33 32.00560 34.88324 126 ft 85 kts 303°
2026-05-09 15:33 32.00820 34.87832 120 ft 65 kts 302°
2026-05-09 15:33 32.01026 34.87404 118 ft 56 kts 289°
2026-05-09 15:33 32.01064 34.87152 119 ft 0 kts 270°
2026-05-09 15:34 32.01054 34.87086 115 ft 15 kts 240°
2026-05-09 15:35 32.01010 34.87062 119 ft 2 kts 147°
2026-05-09 15:35 32.00980 34.87110 115 ft 13 kts 127°
2026-05-09 15:35 32.00914 34.87254 116 ft 26 kts 109°
2026-05-09 15:35 32.00803 34.87332 117 ft 10 kts 194°
2026-05-09 15:36 32.00801 34.87331 121 ft 0 kts 194°
2026-05-09 15:36 32.00760 34.87353 121 ft 19 kts 147°
2026-05-09 15:36 32.00669 34.87377 120 ft 0 kts 181°